Location: Squamish
(49.7000°N, 123.1500°W)
Time: 15:50:05
(UTC-07:00)

Daily predictions for brighter satellites

Satellite Brightness Start Highest point End
(mag) Time Altitude Azimuth Time Altitude Azimuth Time Altitude Azimuth
Cosmos 2150 Rocket 4.3 21:32:23 10° SSW 21:37:45 77° WNW 21:43:04 10° NNE
Cosmos 1825 2.8 21:40:06 10° SSE 21:43:35 36° E 21:47:06 10° NNE
Meteor 2-3 Rocket 4.0 21:40:45 10° SSW 21:46:28 79° WNW 21:52:10 10° N
Helios 1B rocket 2.4 21:43:30 10° NNE 21:47:40 85° ESE 21:51:46 10° SSW
Cosmos 1869 Rocket 3.5 21:45:25 10° S 21:49:44 72° E 21:54:07 10° NNE
ERS-1 Rocket 3.0 21:45:16 10° SSE 21:50:19 88° ENE 21:55:24 10° NNW
SL-08 RB Rocket 4.2 21:45:51 10° SE 21:50:21 49° ENE 21:54:51 10° N
Cosmos 1048 Rocket 4.1 21:48:59 10° NNW 21:54:22 88° ENE 21:59:39 10° SSE
Lacrosse 4 Rocket 1.6 21:53:11 10° NNW 21:57:44 82° NE 22:02:08 10° SE
ISS -3.4 21:55:52 10° SW 21:58:55 38° SSE 22:01:59 10° E
Cosmos 1862 4.1 21:55:54 10° SSE 21:59:29 33° E 22:03:05 10° NNE
Cosmos 2227 Rocket 4.2 21:56:20 10° N 22:00:18 19° NE 22:04:13 10° E
Cosmos 1892 4.3 21:57:30 10° SW 22:01:07 39° WNW 22:04:44 10° N
Cosmos 2221 Rocket 4.0 21:57:17 10° NNW 22:01:41 65° W 22:06:05 10° S
Cosmos 2219 4.1 22:01:39 10° NNW 22:07:03 39° NE 22:12:18 11° ESE
deb Kosmos-1763 4.4 22:03:37 10° NNW 22:07:23 68° WSW 22:11:07 10° SSE
NOSS 3-2 (A) 4.2 22:02:06 10° WSW 22:08:12 62° NW 22:15:03 10° NE
MetOp-A 4.3 22:04:47 10° S 22:10:08 76° WSW 22:15:31 10° NNW
CZ-4C R/B 4.5 22:06:43 10° NW 22:12:00 26° NNE 22:17:55 10° ENE
Cosmos 1437 4.1 22:11:15 10° N 22:14:01 26° ENE 22:16:04 14° ESE
Cosmos 1340 2.7 22:10:44 10° NNW 22:14:32 80° W 22:18:19 10° S
Cosmos 1674 Rocket 4.0 22:11:02 10° N 22:15:13 44° ENE 22:18:42 14° SE
Terra 2.7 22:12:01 12° SE 22:15:56 35° ENE 22:20:16 10° N
USA 215 3.6 22:09:49 11° SE 22:16:05 58° SW 22:22:34 10° WNW
Cosmos 2251 Rocket 4.1 22:12:03 10° NNW 22:17:05 44° ENE 22:21:25 14° SE
Cosmos 1943 Rocket 2.2 22:13:02 10° SSW 22:18:33 64° ESE 22:24:03 10° NE
Gbstr 26 Del rocket 3.3 22:17:06 10° WNW 22:21:57 69° N 22:26:01 10° E
SPOT 1/Viking Rocket 3.6 22:22:09 12° SSE 22:27:04 83° ENE 22:32:20 10° NNW
Cosmos 372 Rocket 3.9 22:23:12 10° SSW 22:28:19 77° ESE 22:33:27 10° NNE
Cosmos 2263 4.3 22:23:10 10° SSW 22:28:56 90° ESE 22:34:43 10° NNE
NOSS 3-2 (C) 4.3 22:22:55 10° WSW 22:29:02 60° NW 22:35:54 10° NE
Cosmos 1606 4.0 22:25:54 10° NNW 22:29:27 38° W 22:32:58 10° SSW
SPOT 5 3.3 22:26:51 10° S 22:32:12 71° WSW 22:37:29 10° NNW
H-2A R/B 3.1 22:31:06 15° ESE 22:33:48 31° ENE 22:37:27 10° N
Okean 3 3.9 22:33:40 10° N 22:37:43 46° ENE 22:40:24 19° SE
Molniya-1 3.3 22:36:19 10° WSW 22:37:50 41° NW 22:39:24 10° NE
Lacrosse 5 rocket 0.9 22:34:25 10° SW 22:38:01 84° SE 22:41:45 10° ENE
Cosmos 1125 Rocket 3.7 22:34:19 10° SSW 22:39:33 76° WNW 22:44:49 10° NNE
COSMOS 2455 3.4 22:34:00 10° SW 22:39:58 63° NW 22:45:58 10° NNE
GEOS 3 Rocket 3.6 22:35:54 16° SE 22:40:02 85° NE 22:45:21 10° NW
Cosmos 2369 Rocket 2.9 22:35:15 10° SW 22:40:50 58° NW 22:46:30 10° NNE
Cosmos 1092 Rocket 4.2 22:36:34 13° SSE 22:41:51 52° E 22:47:47 10° NNE
Nadezhda 4 Rocket 4.0 22:36:23 10° S 22:42:33 72° E 22:48:42 10° NNE
CENTAUR R/B 2.5 22:36:29 10° SW 22:42:39 81° SE 22:49:47 10° NE
IGS 5A 3.7 22:42:12 20° SE 22:44:56 56° ENE 22:49:01 10° N
Cosmos 1908 Rocket 4.0 22:52:49 21° SSE 22:55:28 47° E 22:59:44 10° NNE
Cosmos 2297 Rocket 3.5 22:50:28 10° NNW 22:55:29 31° NE 23:00:02 12° ESE
Cosmos 2344 3.6 22:47:59 10° SSW 22:55:33 68° SE 23:04:20 10° NE
ATLAS 5 CENTAUR R/B 3.4 22:54:02 10° NW 22:59:25 36° WSW 23:04:14 14° S
Cosmos 1867 3.7 22:54:23 10° NW 22:59:51 70° SW 23:03:23 22° SSE
Okean 2 Rocket 4.3 23:03:10 21° ESE 23:04:41 25° E 23:08:21 10° NNE
Cosmos 494 Rocket 4.2 23:00:48 10° NNW 23:06:01 68° WSW 23:09:27 21° S
H-2A R/B 2.9 23:03:26 12° S 23:08:14 47° W 23:13:21 10° NNW
PSLV R/B 3.7 23:08:27 33° ESE 23:09:01 37° ENE 23:11:38 10° N
deb Chang Zheng 4 4.2 23:08:49 10° NNE 23:12:59 38° E 23:14:41 28° SE
Cosmos 1656 Rocket 3.5 23:11:25 10° SSW 23:16:53 82° ESE 23:22:28 10° NNE
CZ-2C R/B 4.2 23:16:45 18° ESE 23:19:34 30° ENE 23:23:47 10° N
Cosmos 1346 3.7 23:17:33 10° NNW 23:20:08 41° W 23:20:53 32° SW
Cosmos 1733 Rocket 4.0 23:16:16 10° SSW 23:20:25 46° WNW 23:24:38 10° N
Cosmos 1782 Rocket 3.8 23:20:55 30° SSE 23:22:49 53° E 23:27:06 10° NNE
CZ-4B R/B 4.0 23:18:27 10° NNE 23:23:09 39° E 23:25:02 28° SE
APEX 3.8 23:22:00 10° NNW 23:26:49 56° NE 23:28:32 30° ESE
Meteor 1-20 Rocket 4.5 23:26:09 26° SSE 23:29:14 54° E 23:34:46 10° NNE
Sich 1 Rocket 3.5 23:27:16 24° S 23:29:56 87° W 23:34:24 10° N
BREEZE M DEB (TANK) 3.0 23:22:57 10° WSW 23:30:12 65° SSE 23:32:28 16° E
Cosmos 2195 Rocket 4.5 23:27:15 20° S 23:31:50 83° E 23:38:12 10° N
Meteor 1-25 Rocket 4.3 23:31:48 25° S 23:35:11 67° E 23:40:59 10° NNE
ISS -3.6 23:32:03 10° W 23:35:18 70° N 23:38:33 10° ENE
Lacrosse 4 Rocket 3.9 23:33:22 10° WNW 23:35:49 15° WSW 23:38:15 10° SW
Cosmos 1975 Rocket 3.1 23:35:56 10° NNW 23:40:25 80° W 23:42:23 33° S
SOZ 4.2 23:38:07 10° WNW 23:40:25 71° NNE 23:40:25 71° NNE
Cosmos 1812 3.0 23:38:19 10° NNW 23:42:10 61° W 23:43:38 34° SSW
Cosmos 1633 3.1 23:41:48 37° ESE 23:42:12 39° E 23:45:34 10° NNE
CZ-2C R/B 3.6 23:40:04 10° NE 23:44:34 29° E 23:46:00 25° ESE
Cosmos 2227 Rocket 2.3 23:39:44 10° NNW 23:45:24 71° ENE 23:48:21 29° SE
Cosmos 1655 Rocket 4.0 23:43:07 26° S 23:46:45 74° E 23:53:00 10° NNE
ALOS 2 3.7 23:47:34 25° ESE 23:49:18 34° ENE 23:53:17 10° N
ATLAS CENTAUR R/B 1.1 23:48:33 40° S 23:49:46 64° SE 23:53:33 10° NE
Cosmos 2219 3.9 23:45:52 10° NW 23:51:18 44° WSW 23:54:13 25° SSW
Meteor 1-14 Rocket 4.4 23:47:24 20° SSW 23:51:37 77° WNW 23:57:26 10° N
Terra 3.1 23:50:55 19° SSW 23:53:41 33° W 23:58:01 10° NNW
